Total_Precipitation_Accumulation
0.05 0.09 0.15 0.17 0.18 0.16 0.12 0.11 0.17 0.20 0.40 0.44 0.55 0.72 0.89 0.94 0.82 0.74 0.80 0.83 0.83 0.91 1.09 1.23 1.40 1.46 1.45 1.48 1.54 1.68 1.80 1.88 2.09 2.28 2.33 2.20 2.15 2.22 2.24 2.28 2.21 2.40 2.43 2.45
0.05 0.08 0.14 0.16 0.18 0.13 0.09 0.09 0.13 0.19 0.32 0.40 0.54 0.66 0.74 0.74 0.71 0.81 0.85 0.84 0.79 0.89 1.11 1.18 1.23 1.32 1.36 1.42 1.50 1.59 1.69 1.85 2.10 2.32 2.44 2.39 2.43 2.58 2.58 2.53 2.63 2.76 2.72 2.71
0.08 0.11 0.13 0.22 0.18 0.14 0.14 0.13 0.16 0.25 0.31 0.37 0.50 0.66 0.79 0.81 0.85 0.89 0.90 0.87 0.85 0.87 0.99 1.22 1.16 1.17 1.30 1.42 1.58 1.74 2.00 2.20 2.34 2.51 2.62 2.59 2.54 2.58 2.61 2.64 2.64 2.71 2.74 2.79
0.14 0.17 0.26 0.25 0.21 0.20 0.23 0.28 0.29 0.32 0.39 0.46 0.57 0.71 0.83 0.89 0.87 0.99 1.09 1.16 1.20 1.27 1.27 1.36 1.32 1.32 1.42 1.56 1.75 1.85 1.97 2.20 2.36 2.57 2.65 2.67 2.74 2.72 2.79 2.89 2.92 2.94 2.91 2.90
0.24 0.26 0.30 0.32 0.32 0.34 0.39 0.51 0.55 0.61 0.66 0.67 0.71 0.75 0.90 1.03 1.11 1.23 1.19 1.23 1.36 1.43 1.46 1.47 1.53 1.66 1.85 1.92 2.10 2.28 2.40 2.56 2.65 2.67 2.74 2.77 2.80 2.94 3.06 3.17 3.16 3.18 3.13 3.09
0.34 0.43 0.51 0.51 0.50 0.46 0.55 0.89 0.79 0.87 0.97 0.96 1.03 1.27 1.34 1.33 1.33 1.38 1.35 1.38 1.46 1.49 1.54 1.74 1.80 1.87 2.06 2.29 2.46 2.65 2.81 2.90 2.96 2.99 2.99 2.94 2.94 3.05 3.12 3.18 3.18 3.20 3.10 3.12
0.47 0.50 0.55 0.55 0.55 0.56 0.99 1.35 1.26 1.28 1.31 1.24 1.38 1.48 1.36 1.29 1.41 1.47 1.54 1.59 1.61 1.64 1.73 1.87 1.95 2.03 2.22 2.51 2.75 2.95 2.99 3.04 3.08 3.15 3.28 3.38 3.42 3.23 3.08 3.07 3.13 3.22 3.21 3.26
0.72 0.88 0.96 0.67 0.75 1.11 1.39 1.33 1.55 1.44 1.30 1.32 1.32 1.28 1.23 1.25 1.41 1.59 1.71 1.75 1.78 1.80 1.85 1.89 2.04 2.19 2.30 2.56 2.70 2.89 2.93 3.04 3.11 3.13 3.05 3.07 3.33 3.36 3.31 3.22 3.12 3.14 3.21 3.14
1.06 1.19 1.08 0.89 0.96 1.23 1.28 1.29 1.44 1.44 1.25 1.21 1.22 1.17 1.18 1.25 1.36 1.50 1.62 1.70 1.71 1.76 1.90 1.91 1.95 2.15 2.42 2.50 2.58 2.62 2.74 2.86 3.06 3.14 3.21 3.16 3.12 3.19 3.19 3.14 2.99 2.79 2.82 2.85
1.41 1.43 1.29 1.12 1.01 1.09 1.16 1.23 1.29 1.42 1.43 1.31 1.26 1.21 1.26 1.30 1.35 1.50 1.63 1.68 1.75 1.71 1.74 1.86 1.97 2.15 2.25 2.29 2.42 2.64 2.76 2.80 2.87 2.96 3.02 3.09 3.15 3.08 3.02 3.01 2.96 2.80 2.78 2.80
1.92 1.97 1.81 1.63 1.40 1.29 1.26 1.28 1.38 1.49 1.56 1.61 1.56 1.49 1.50 1.44 1.46 1.57 1.63 1.60 1.70 1.79 1.82 1.89 1.97 2.12 2.26 2.32 2.37 2.50 2.55 2.51 2.59 2.77 2.88 2.95 3.07 3.11 2.94 2.81 2.83 2.72 2.76 2.92
2.30 2.12 2.12 1.99 1.62 1.46 1.49 1.58 1.57 1.59 1.63 1.60 1.60 1.58 1.60 1.63 1.55 1.48 1.46 1.57 1.72 1.79 1.86 1.90 1.93 2.02 2.07 2.13 2.28 2.43 2.51 2.53 2.51 2.57 2.72 2.82 2.77 2.82 2.85 2.59 2.51 2.35 2.37 2.44
1.93 1.93 1.99 1.89 1.72 1.62 1.66 1.65 1.69 1.75 1.71 1.62 1.57 1.57 1.57 1.63 1.68 1.59 1.54 1.57 1.70 1.75 1.77 1.82 1.83 1.87 1.88 1.95 2.21 2.47 2.58 2.69 2.65 2.46 2.42 2.47 2.48 2.45 2.45 2.35 2.08 1.94 1.90 1.86
1.95 1.98 2.07 1.97 1.93 1.77 1.75 1.65 1.59 1.57 1.50 1.51 1.55 1.57 1.53 1.52 1.63 1.74 1.70 1.71 1.85 1.90 1.77 1.67 1.67 1.73 1.79 1.84 1.97 2.14 2.23 2.32 2.31 2.18 2.12 2.09 2.11 2.11 2.00 2.00 1.92 1.76 1.71 1.67
1.81 1.81 1.93 1.86 1.82 1.82 1.83 1.79 1.69 1.59 1.47 1.52 1.59 1.58 1.63 1.71 1.79 1.90 1.92 1.97 2.03 2.01 1.85 1.67 1.61 1.65 1.71 1.80 1.91 1.96 2.05 2.06 1.99 2.00 2.05 2.09 2.17 2.20 2.11 2.02 2.02 1.96 1.82 1.66
1.66 1.72 1.72 1.80 1.94 1.84 1.77 1.78 1.79 1.73 1.59 1.58 1.64 1.61 1.61 1.70 1.84 1.88 1.90 2.05 2.21 2.19 2.03 1.90 1.76 1.69 1.66 1.79 1.94 1.98 1.96 2.10 2.04 1.92 1.94 2.11 2.23 2.21 2.24 2.29 2.22 2.26 2.23 1.92
1.79 1.82 1.75 1.81 1.93 1.94 1.89 1.82 1.84 1.79 1.75 1.75 1.74 1.63 1.64 1.72 1.85 1.95 1.86 1.83 1.93 2.01 1.99 1.91 1.79 1.67 1.68 1.74 1.81 1.93 1.91 1.96 1.99 1.89 1.92 2.04 2.14 2.24 2.23 2.27 2.34 2.35 2.32 2.12
1.65 1.57 1.55 1.62 1.68 1.76 1.84 1.86 1.87 1.78 1.72 1.71 1.73 1.69 1.70 1.79 1.92 1.96 1.87 1.77 1.70 1.72 1.77 1.73 1.64 1.60 1.62 1.63 1.72 1.87 1.89 1.89 1.91 1.95 1.99 2.05 2.09 2.22 2.37 2.40 2.40 2.45 2.31 2.22
1.61 1.51 1.45 1.46 1.44 1.51 1.64 1.74 1.78 1.72 1.64 1.65 1.71 1.71 1.67 1.66 1.77 1.86 1.83 1.92 1.94 1.86 1.74 1.61 1.57 1.48 1.53 1.57 1.59 1.66 1.69 1.77 1.89 1.94 1.96 2.00 2.04 2.10 2.19 2.24 2.29 2.33 2.19 2.14
1.76 1.68 1.52 1.45 1.43 1.43 1.51 1.54 1.59 1.63 1.58 1.58 1.60 1.64 1.63 1.62 1.70 1.92 2.05 2.10 2.13 2.01 1.84 1.68 1.39 1.30 1.36 1.43 1.40 1.31 1.33 1.41 1.46 1.56 1.68 1.77 1.83 1.93 1.91 1.88 1.93 2.00 1.93 1.91
1.91 1.81 1.67 1.57 1.59 1.53 1.49 1.45 1.49 1.59 1.60 1.62 1.74 1.79 1.70 1.62 1.64 1.89 2.25 2.33 2.14 1.93 1.80 1.74 1.40 1.18 1.09 1.19 1.31 1.28 1.33 1.33 1.31 1.39 1.45 1.55 1.64 1.71 1.78 1.81 1.78 1.75 1.74 1.71
1.99 1.89 1.78 1.68 1.61 1.59 1.55 1.49 1.50 1.58 1.61 1.65 1.62 1.62 1.66 1.59 1.59 1.79 2.00 2.19 2.06 1.90 1.56 1.44 1.30 1.11 1.06 1.04 1.04 1.16 1.26 1.31 1.31 1.35 1.39 1.44 1.52 1.58 1.66 1.66 1.63 1.56 1.55 1.57
2.02 1.89 1.81 1.69 1.62 1.59 1.56 1.56 1.55 1.58 1.58 1.53 1.48 1.56 1.65 1.65 1.60 1.76 1.88 1.69 1.55 1.58 1.41 1.33 1.25 1.10 1.01 0.96 1.00 1.04 1.12 1.20 1.23 1.25 1.27 1.31 1.37 1.42 1.47 1.52 1.55 1.47 1.49 1.50
1.91 1.95 2.00 1.94 1.72 1.62 1.64 1.62 1.59 1.56 1.46 1.44 1.45 1.49 1.54 1.57 1.54 1.47 1.49 1.51 1.49 1.45 1.33 1.32 1.19 1.02 0.91 0.83 0.91 1.00 1.09 1.16 1.18 1.17 1.18 1.24 1.30 1.34 1.43 1.51 1.57 1.51 1.46 1.39
1.84 1.85 1.90 1.91 1.78 1.66 1.61 1.57 1.62 1.63 1.55 1.51 1.45 1.43 1.40 1.43 1.47 1.45 1.41 1.40 1.44 1.36 1.24 1.26 1.19 1.13 1.03 1.01 1.04 1.10 1.14 1.20 1.25 1.24 1.26 1.30 1.34 1.39 1.43 1.49 1.51 1.46 1.41 1.39
1.82 1.77 1.78 1.75 1.64 1.63 1.63 1.63 1.69 1.70 1.61 1.54 1.50 1.45 1.38 1.32 1.35 1.42 1.50 1.45 1.31 1.27 1.18 1.16 1.13 1.15 1.12 1.17 1.23 1.22 1.17 1.19 1.22 1.20 1.28 1.41 1.45 1.47 1.43 1.37 1.38 1.40 1.32 1.26
1.76 1.73 1.73 1.66 1.61 1.57 1.57 1.56 1.62 1.69 1.61 1.50 1.52 1.50 1.47 1.48 1.50 1.52 1.52 1.51 1.40 1.28 1.20 1.16 1.10 1.03 1.05 1.10 1.15 1.21 1.21 1.22 1.23 1.25 1.29 1.35 1.37 1.35 1.30 1.26 1.30 1.31 1.24 1.20